Location: Freistadt
(48.5112°N, 14.5013°E)
Time: 22:08:04
(UTC+02:00)

O/OREOS (USA 219) - Pass Details

Date: 01 April 2023
Orbit: 621 x 646 km, 72.0° (Epoch: 22 May)

Event Time Altitude Azimuth Distance (km) Brightness Sun altitude
Exits shadow 05:50:11 - 206° (SSW) 2,862 ? -9.0°
Reaches altitude 10° 05:52:16 10° 206° (SSW) 2,032 ? -8.7°
Maximum altitude 05:56:50 86° 295° (WNW) 647 ? -8.0°
Drops below altitude 10° 06:01:26 10° 26° (NNE) 2,033 ? -7.2°
Sets 06:03:42 0° 27° (NNE) 2,941 ? -6.9°
